Disclaimer

Please do not use the information listed here in-flight or in-navigation, as they are not provided to us by the airports but are provided by volunteers, so they might be outdated.

Search


Regions


Airport information page

Radio informations:
SAMARA KRUG - 128.0 MHz
SAMARA VOLMET - 126.875 MHz
SAMARA TRANSIT - 131.6 MHz
SAMARA TAXIING - 119.0 MHz
SAMARA ATIS - 134.9 MHz

Airport informations:
Latitude: 53° 30' 17.49" N
Longitude: 050° 09' 51.61" E
Elevation: 477 feet - 145 meters
Operating hours: 24 hour operations
Operating agency: Civil government, landing fees and diplomatic clearance may be required
Timezone: UTC+4(+5DT) - Last Sunday in March to last Sunday in October
Fuel: Jet A1, without icing nhibitor.

Runway information:
05/23 - 8360 x 197 feet< - >2548 x 60 meters
15/33 - 9846 x 148 feet< - >3001 x 45 meters

Recent METARs:
UWWW 171000Z 29004MPS 9999 BKN018 M06/M10 Q1010 R33/410240 NOSIG RMK QFE747/0996
UWWW 171030Z 32006MPS 9999 BKN019 M08/M11 Q1010 R33/410240 NOSIG RMK QFE747/0996
UWWW 171100Z 30004MPS 9999 SCT020 M07/M11 Q1010 R33/410240 NOSIG RMK QFE747/0996

Airport on the map: